Tracking 22124 objects as of 23-Jan-2021
HD Live streaming from Space Station
objects crossing your sky now

COSMOS 1651 (GLONASS)

Track COSMOS 1651 (GLONASS) now!
COSMOS 1651 (GLONASS) is classified as:


NORAD ID: 15698
Int'l Code: 1985-037B
Perigee: 19,098.4 km
Apogee: 19,172.0 km
Inclination: 64.2 °
Period: 675.7 minutes
Semi major axis: 25506 km
RCS: 1.6087 m2 (large)
Launch date: May 17, 1985
Source: Commonwealth of Independent States (former USSR) (CIS)
Launch site: TYURATAM MISSILE AND SPACE COMPLEX (TTMTR)
aabbcc
Your satellite tracking list
Your tracking list is empty




NASA's NSSDC Master Catalog

Two Line Element Set (TLE):
1 15698U 85037B   21022.32559064  .00000002  00000-0  00000-0 0  9995
2 15698  64.1551 140.7066 0014420  19.6541  62.7195  2.13125040277761
Source of the keplerian elements: AFSPC